This is the latest recevied weather packets stored in our database for station/object OH2HCY-3. If no packets are shown the sender has not sent any weather packets the latest 10 day(s).
| Time | Temp. | Humidity | Pressure | Rain* | Wind** | Luminosity | Snow |
|---|---|---|---|---|---|---|---|
| 1778016456 | 3.33° C | 64% | 1009.2 hPa | - | - | - | - |
| 1778015312 | 3.33° C | 63% | 1009.1 hPa | - | - | - | - |
| 1778014291 | 3.33° C | 62% | 1008.9 hPa | - | - | - | - |
| 1778013201 | 3.89° C | 59% | 1008.7 hPa | - | - | - | - |
| 1778012186 | 3.89° C | 57% | 1008.6 hPa | - | - | - | - |
| 1778011082 | 4.44° C | 51% | - | - | - | - | - |
| 1778011081 | 4.44° C | 55% | 1008.3 hPa | - | - | - | - |
| 1778010046 | 5° C | 54% | 1008.3 hPa | - | - | - | - |
| 1778009006 | 5° C | 55% | 1008.3 hPa | - | - | - | - |
| 1778007896 | 5° C | 54% | 1008.1 hPa | - | - | - | - |
| 1778006825 | 5.56° C | 52% | 1008 hPa | - | - | - | - |
| 1778006824 | 5.56° C | 52% | 1008 hPa | - | - | - | - |
| 1778005711 | 5.56° C | 50% | 1007.8 hPa | - | - | - | - |
| 1778004566 | 6.11° C | 53% | 1007.5 hPa | - | - | - | - |
| 1778003440 | 6.67° C | 55% | 1007.3 hPa | - | - | - | - |
| 1778002305 | 6.67° C | 55% | 1007.1 hPa | - | - | - | - |
| 1778001115 | 7.22° C | 54% | 1007 hPa | - | - | - | - |
| 1778000010 | 7.78° C | 51% | 1006.9 hPa | - | - | - | - |
| 1777998937 | 7.78° C | 46% | 1006.9 hPa | - | - | - | - |
| 1777997965 | 8.89° C | 40% | 1006.8 hPa | - | - | - | - |
| 1777996805 | 8.89° C | 38% | 1006.7 hPa | - | - | - | - |
| 1777995830 | 9.44° C | 37% | 1006.6 hPa | - | - | - | - |
| 1777994790 | 9.44° C | 40% | 1006.5 hPa | - | - | - | - |
| 1777993660 | 10° C | 37% | 1006.4 hPa | - | - | - | - |
| 1777992695 | 9.44° C | 37% | 1006.4 hPa | - | - | - | - |
* Rain since midnight (hover to see other rain measurements)
** Current wind speed in m/s (hover to see current wind gust speed)